[[{"header":{"parameterUnit":"m.s-1","parameterCategory":1,"la1":30.2992,"la2":30.254,"lo1":-89.0895,"lo2":-89.0443,"dy":0.0025,"dx":0.0025,"nx":19,"ny":19,"refTime":"2026-04-07T21:00:00:Z","depth":0,"parameterNumber":2,"parameterNumberName":"U-component_of_WINDS"},"data":[0,0,0,-7.6311,-7.6316,-7.6497,-7.6497,-7.6786,-7.6789,0,0,0,0,0,0,0,0,0,0,0,-7.6292,-7.6295,-7.6311,-7.6316,-7.6497,-7.6497,-7.6785,-7.6789,0,0,0,0,0,0,0,0,0,0,0,-7.6291,-7.6295,-7.6299,-7.6317,-7.6497,-7.6497,-7.6784,-7.6628,0,0,0,0,0,0,0,0,0,0,-7.6442,-7.6459,-7.6294,-7.6299,-7.6318,-7.6497,-7.6498,-7.6619,-7.6637,-7.6728,0,-7.6818,0,-7.6809,-7.6812,-7.6813,0,0,0,-7.629,-7.6444,-7.6461,-7.6299,-7.632,-7.6497,-7.6408,-7.6629,-7.665,-7.6753,-7.6822,-7.6831,-7.6813,-7.6814,-7.6816,-7.7425,-7.7429,0,0,-7.628,-7.6344,-7.6447,-7.6476,-7.6452,-7.6403,-7.6414,-7.664,-7.672,-7.6823,-7.6837,-7.6818,-7.6816,-7.6819,-7.7421,-7.7426,0,0,0,-7.6269,-7.6338,-7.6348,-7.6466,-7.6494,-7.6408,-7.6422,-7.671,-7.6708,-7.684,-7.6822,-7.6818,-7.6823,-7.7417,-7.7423,-7.7685,0,0,0,-7.6262,-7.6331,-7.6345,-7.6386,-7.6491,-7.6605,-7.6487,-7.6692,-7.6716,-7.682,-7.6818,-7.6826,-7.7412,-7.742,-7.7668,-7.7798,0,0,0,-7.6269,-7.6331,-7.637,-7.6389,-7.6469,-7.6599,-7.6609,-7.6696,-7.6706,-7.6813,-7.6827,-7.7409,-7.7419,-7.7653,-7.7773,-7.7976,0,0,0,-7.6294,-7.6601,-7.6375,-7.671,-7.6468,-7.676,-7.6607,-7.6822,-7.6945,-7.682,-7.7413,-7.7423,-7.7648,-7.7758,-7.796,-7.8158,-7.8246,0,0,-7.6716,-7.6654,-7.6846,-7.6649,-7.6998,-7.6728,-7.7114,-7.7167,-7.7119,-7.7326,-7.734,-7.7674,-7.7771,-7.7973,-7.8721,-7.8792,0,0,0,-7.7001,-7.714,-7.7219,-7.7339,-7.7386,-7.7437,-7.7424,-7.7443,-7.7615,-7.7239,-7.78,-7.7856,-7.7972,-7.8063,-7.8123,-7.8218,-7.7468,-7.7467,-7.7466,-7.769,-7.7612,-7.7924,-7.7868,-7.7986,-7.7969,-7.8057,-7.808,-7.7967,-7.8101,-7.8162,-7.8626,-7.8735,-7.878,-7.8879,-7.826,-7.8261,-7.8262,-7.8263,-7.8301,-7.8484,-7.8326,-7.8572,-7.8487,-7.8693,-7.8688,-7.8601,-7.878,-7.8574,-7.8671,-7.8452,-7.886,-7.8942,-7.8282,-7.8279,-7.8276,-7.8274,-7.8273,-7.8742,-7.8816,-7.8834,-7.8998,-7.9133,-7.9065,-7.9244,-7.9161,-7.9084,-7.9181,-7.9234,-7.923,-7.9214,-7.9212,-7.9214,-7.9216,-7.9217,-7.9218,-7.9219,-7.9193,-7.9204,-7.9364,-7.944,-7.9505,-7.958,-7.9566,-7.9627,-7.9674,-7.9599,-7.9599,-7.9473,-7.8915,-7.8775,-7.9244,-7.9239,-7.9236,-7.9234,-7.9232,-7.9838,-7.9679,-7.9927,-7.9993,-8.0073,-8.0212,-8.0104,-8.0237,-8.0276,-8.0366,-8.0219,-7.982,-7.975,-7.9701,-7.9586,-8.0235,-8.0235,-8.0235,-8.0236,-8.021,-8.0166,-8.04,-8.051,-8.0608,-8.0535,-8.0817,-8.0809,-8.0775,-8.0794,-8.0688,-8.0527,-8.0481,-8.0438,-8.0374,-8.0264,-8.1072,-8.1073,-8.1074,-8.0602,-8.0564,-8.082,-8.0784,-8.0841,-8.0891,-8.1154,-8.1286,-8.1214,-8.1106,-8.0807,-8.0771,-8.0511,-8.0431,-8.0315,-8.0217,-8.0014,0,0]},{"header":{"parameterUnit":"m.s-1","parameterCategory":1,"la1":30.2992,"la2":30.254,"lo1":-89.0895,"lo2":-89.0443,"dy":0.0025,"dx":0.0025,"nx":19,"ny":19,"refTime":"2026-04-07T21:00:00:Z","depth":0,"parameterNumber":3,"parameterNumberName":"V-component_of_WINDS"},"data":[0,0,0,-0.2531,-0.2531,-0.2548,-0.2549,-0.2548,-0.2547,0,0,0,0,0,0,0,0,0,0,0,-0.2513,-0.2512,-0.2531,-0.2531,-0.2548,-0.2549,-0.2548,-0.2547,0,0,0,0,0,0,0,0,0,0,0,-0.2513,-0.2512,-0.2512,-0.2531,-0.2548,-0.2549,-0.2548,-0.2542,0,0,0,0,0,0,0,0,0,0,-0.2529,-0.2501,-0.2512,-0.2512,-0.2531,-0.2548,-0.2549,-0.2542,-0.2543,-0.253,0,-0.2517,0,-0.2532,-0.2546,-0.2546,0,0,0,-0.254,-0.25,-0.2517,-0.2512,-0.2531,-0.2548,-0.2543,-0.2543,-0.2543,-0.253,-0.2517,-0.2518,-0.2532,-0.2546,-0.2546,-0.2444,-0.2443,0,0,-0.2539,-0.2509,-0.2516,-0.2516,-0.2514,-0.2542,-0.2543,-0.2543,-0.2526,-0.2517,-0.2518,-0.2532,-0.2546,-0.2545,-0.2445,-0.2444,0,0,0,-0.253,-0.2508,-0.2525,-0.2516,-0.2521,-0.2543,-0.2544,-0.2526,-0.2535,-0.2518,-0.2532,-0.2545,-0.2545,-0.2446,-0.2445,-0.237,0,0,0,-0.253,-0.2503,-0.2524,-0.2505,-0.252,-0.2524,-0.2526,-0.2534,-0.2536,-0.2532,-0.2545,-0.2545,-0.2447,-0.2446,-0.2374,-0.2338,0,0,0,-0.2516,-0.2501,-0.25,-0.2504,-0.2511,-0.2525,-0.2533,-0.2535,-0.2543,-0.2546,-0.2545,-0.2448,-0.2446,-0.2378,-0.2345,-0.2301,0,0,0,-0.2492,-0.2434,-0.2498,-0.2438,-0.251,-0.2479,-0.2534,-0.2512,-0.2506,-0.2545,-0.2447,-0.2445,-0.2379,-0.2349,-0.2304,-0.2256,-0.2234,0,0,-0.2401,-0.2422,-0.2389,-0.2447,-0.2397,-0.2479,-0.2418,-0.244,-0.2468,-0.245,-0.2448,-0.2373,-0.2345,-0.2301,-0.2126,-0.2108,0,0,0,-0.2349,-0.2325,-0.2318,-0.2311,-0.2327,-0.2336,-0.2371,-0.2379,-0.2366,-0.2453,-0.2348,-0.2332,-0.2307,-0.2285,-0.227,-0.225,-0.2435,-0.2435,-0.2435,-0.2176,-0.2215,-0.2162,-0.2202,-0.2194,-0.223,-0.2226,-0.2242,-0.2285,-0.2259,-0.2252,-0.2141,-0.2115,-0.2103,-0.2081,-0.2233,-0.2233,-0.2232,-0.2232,-0.2044,-0.2014,-0.2071,-0.2039,-0.2079,-0.2053,-0.2085,-0.2115,-0.2095,-0.215,-0.213,-0.2184,-0.2083,-0.2065,-0.2227,-0.2228,-0.2229,-0.2229,-0.2229,-0.1932,-0.1924,-0.1936,-0.1927,-0.1916,-0.196,-0.1937,-0.1976,-0.2012,-0.1992,-0.1988,-0.1989,-0.1993,-0.1988,-0.1988,-0.1988,-0.1987,-0.1987,-0.1987,-0.181,-0.1825,-0.1802,-0.1813,-0.1813,-0.1816,-0.1852,-0.1851,-0.186,-0.189,-0.189,-0.1931,-0.2067,-0.2098,-0.1981,-0.1982,-0.1983,-0.1983,-0.1984,-0.1655,-0.1697,-0.166,-0.1659,-0.1675,-0.1659,-0.171,-0.1706,-0.1711,-0.1698,-0.1745,-0.184,-0.1863,-0.1875,-0.1901,-0.1739,-0.1739,-0.1739,-0.1739,-0.1558,-0.1575,-0.1545,-0.154,-0.1541,-0.1582,-0.1537,-0.1563,-0.1597,-0.1602,-0.1632,-0.1671,-0.1682,-0.1698,-0.1714,-0.1738,-0.1539,-0.1539,-0.1539,-0.1464,-0.1482,-0.1436,-0.1471,-0.1486,-0.1496,-0.1454,-0.1445,-0.1492,-0.1531,-0.1606,-0.1614,-0.1678,-0.1697,-0.1734,-0.1758,-0.1804,0,0]}]]